sat.trackr.live / text

‹ back to catalog

STARLINK-35695

NORAD 66558 · 2025-268B

PAYLOAD ACTIVE UNKNOWN

§ Identity

Operator
Country
US
Launch date
2025-11-21
Launch site
AFETR
Launch vehicle
Mass (kg)
RCS (m²)

Purposes: comms

External: N2YO · Heavens-Above · Gunter

§ Orbital elements

Epoch: 2026-05-25T01:10:58.946304Z

Period
94.27 min
Inclination
43.0048°
Eccentricity
0.0001029
Mean motion
15.27595023 rev/d
Perigee alt
482.3 km
Apogee alt
483.7 km
Semi-major
6,861.1 km
B*
6.1512e-4
RAAN
276.2013°
Arg perigee
302.4899°
Mean anomaly
57.5853°
Rev number
2,963

§ Raw data

STARLINK-356951 66558U 25268B   26145.04929336  .00016711  00000+0  61512-3 0  99902 66558  43.0048 276.2013 0001029 302.4899  57.5853 15.27595023 29631

JSON: /api/v1/satellites/66558 · /tle

For live sub-satellite position, see the globe view (requires WebGL).

§ Visibility from observer

Set your observer location to see the next 7 days of passes ≥ 10°. The values pass through the URL so the page stays shareable.

No JS? Fill the form by hand. The geolocation button needs JavaScript.